Regional Weather Roundup
Issued by NWS

Home | Current Version | Previous Version | Graphics & Text | Print | Product List | Glossary On
Versions: 1 2 3 4 5 6 7 8 9 10 11 12 13 14 15 16 17 18 19 20 21 22 23 24 25 26 27 28 29 30 31 32 33 34 35 36 37 38 39 40 41 42 43 44 45 46 47 48 49 50
773
ASUS43 KFSD 161002
RWRSD

WEATHER ROUNDUP FOR SOUTH DAKOTA
NATIONAL WEATHER SERVICE SIOUX FALLS SD
400 AM CST TUE JAN 16 2018

NOTE: "FAIR" INDICATES FEW OR NO CLOUDS BELOW 12,000 FEET WITH NO
SIGNIFICANT WEATHER AND/OR OBSTRUCTIONS TO VISIBILITY.


SDZ001>005-009-010-012>017-161100-
NORTHWEST AND NORTH CENTRAL SOUTH DAKOTA

CITY           SKY/WX    TMP DP  RH WIND       PRES   REMARKS
BUFFALO          N/A    -12 -17  78 S3        30.48F
FAITH            N/A    -15 -19  82 SW5       30.68F WCI -27
MOBRIDGE       CLEAR    -12 -18  74 CALM      30.74F
$$

SDZ012>016-024>037-041>051-057-063-072>074-161100-
SOUTHWEST AND SOUTH CENTRAL SOUTH DAKOTA

CITY           SKY/WX    TMP DP  RH WIND       PRES   REMARKS
RAPID CTY ARPT CLEAR    -10 -16  74 S3        30.63F
PIERRE         CLEAR     -8 -14  74 NW8       30.79F WCI -24
CUSTER         CLEAR     -5 -25  37 W3        30.40F
ELLSWORTH AFB  CLEAR     -8 -12  82 W3        30.60F
PHILIP         CLEAR    -12 -17  78 W7        30.76F WCI -27
PINE RIDGE     CLEAR    -20 -25  77 CALM      30.64F
SPEARFISH        N/A     -6 -15  65 S7        30.52F WCI -20
WINNER         FAIR      -6 -13  71 NW12      30.77S WCI -25
$$

SDZ004>011-016>023-039-040-161100-
NORTHEAST SOUTH DAKOTA

CITY           SKY/WX    TMP DP  RH WIND       PRES   REMARKS
ABERDEEN       CLEAR    -11 -17  75 N5        30.81F WCI -23
WATERTOWN      CLOUDY   -10 -14  82 N14       30.69R WCI -31
BROOKINGS      CLOUDY    -8 -12  83 N17       30.70R WCI -31
SISSETON         N/A     -9 -14  78 NW14      30.77F WCI -30
$$

SDZ017-020-022-023-036>040-048>070-161100-
SOUTHEAST SOUTH DAKOTA

CITY           SKY/WX    TMP DP  RH WIND       PRES   REMARKS
SIOUX FALLS    CLOUDY    -4  -8  83 N12       30.71R WCI -22
HURON          MOCLDY    -9 -15  75 NW13      30.81S WCI -29
CHAMBERLAIN    PTCLDY    -6 -12  73 W9        30.79S WCI -22
MITCHELL       PTCLDY    -7 -14  71 NW15      30.81R WCI -28
YANKTON        CLOUDY    -4  -9  79 NW15      30.77R WCI -25
$$

ABBREVIATIONS USED IN REMARKS
   TC - TEMPERATURE IN CELSIUS
  WCI - WIND CHILL INDEX
   HX - HEAT INDEX
  VSB - VISIBILITY





USA.gov is the U.S. government's official web portal to all federal, state and local government web resources and services.